sat.trackr.live / text

‹ back to catalog

STARLINK-11138 [DTC]

NORAD 59949 · 2024-107E

PAYLOAD ACTIVE UNKNOWN

§ Identity

Operator
Country
US
Launch date
2024-06-05
Launch site
AFETR
Launch vehicle
Mass (kg)
RCS (m²)

Purposes: comms

External: N2YO · Heavens-Above · Gunter

§ Orbital elements

Epoch: 2026-05-24T22:45:36.930240Z

Period
91.74 min
Inclination
53.1592°
Eccentricity
0.0001068
Mean motion
15.69711022 rev/d
Perigee alt
359.0 km
Apogee alt
360.4 km
Semi-major
6,737.9 km
B*
1.4211e-5
RAAN
235.3041°
Arg perigee
34.2613°
Mean anomaly
325.8473°
Rev number
11,418

§ Raw data

STARLINK-11138 [DTC]1 59949U 24107E   26144.94834410  .00001133  00000+0  14211-4 0  99902 59949  53.1592 235.3041 0001068  34.2613 325.8473 15.69711022114186

JSON: /api/v1/satellites/59949 · /tle

For live sub-satellite position, see the globe view (requires WebGL).

§ Visibility from observer

Set your observer location to see the next 7 days of passes ≥ 10°. The values pass through the URL so the page stays shareable.

No JS? Fill the form by hand. The geolocation button needs JavaScript.